| time (UTC) | temp C | wind direction | speed KPH | gust KPH | rain 1hr cm | rain 24hr cm | rain mn cm | humidity % | barometer mb |
| 20260901013346 | 19 | 263 | 4.8 | 19.3 | 0.00 | 0.00 | 0.00 | 51 | 1017.3 |
| 20260901012834 | 19 | 263 | 6.4 | 19.3 | 0.00 | 0.00 | 0.00 | 51 | 1016.9 |
| 20260901012334 | 18 | 263 | 8.0 | 24.1 | 0.00 | 0.00 | 0.00 | 51 | 1016.9 |
| 20260901011822 | 18 | 263 | 8.0 | 24.1 | 0.00 | 0.00 | 0.00 | 52 | 1016.9 |
| 20260901011319 | 18 | 263 | 9.7 | 24.1 | 0.00 | 0.00 | 0.00 | 52 | 1017.6 |
| 20260901010208 | 18 | 263 | 6.4 | 20.9 | 0.00 | 0.00 | 0.00 | 51 | 1017.6 |
| 20260901005705 | 18 | 263 | 4.8 | 20.9 | 0.00 | 0.00 | 0.00 | 51 | 1018.0 |
| 20260901005211 | 18 | 263 | 3.2 | 17.7 | 0.00 | 0.00 | 0.00 | 51 | 1018.0 |
| 20260901004710 | 18 | 263 | 4.8 | 17.7 | 0.00 | 0.00 | 0.00 | 51 | 1018.0 |
| 20260901004217 | 18 | 263 | 4.8 | 20.9 | 0.00 | 0.00 | 0.00 | 51 | 1017.6 |
| 20260901003725 | 18 | 263 | 6.4 | 20.9 | 0.00 | 0.00 | 0.00 | 51 | 1017.6 |
| 20260901003218 | 18 | 263 | 6.4 | 20.9 | 0.00 | 0.00 | 0.00 | 51 | 1017.6 |
| 20260901002716 | 18 | 263 | 6.4 | 20.9 | 0.00 | 0.00 | 0.00 | 50 | 1017.8 |
| 20260901002217 | 18 | 263 | 6.4 | 25.7 | 0.00 | 0.00 | 0.00 | 50 | 1017.8 |
| 20260901001715 | 18 | 263 | 4.8 | 25.7 | 0.00 | 0.00 | 0.00 | 50 | 1017.8 |
| 20260901001158 | 18 | 263 | 8.0 | 25.7 | 0.00 | 0.00 | 0.00 | 50 | 1018.0 |
| 20260901000700 | 18 | 263 | 9.7 | 25.7 | 0.00 | 0.00 | 0.00 | 49 | 1018.0 |
| 20260901000204 | 19 | 263 | 6.4 | 24.1 | 0.00 | 0.00 | 0.00 | 48 | 1018.0 |
| 20260831235648 | 19 | 263 | 8.0 | 24.1 | 0.00 | 0.00 | 0.00 | 48 | 1018.0 |
| 20260831235146 | 19 | 263 | 8.0 | 24.1 | 0.00 | 0.00 | 0.00 | 47 | 1018.0 |
| 20260831234635 | 19 | 263 | 8.0 | 22.5 | 0.00 | 0.00 | 0.00 | 48 | 1018.0 |
| 20260831234127 | 19 | 263 | 8.0 | 22.5 | 0.00 | 0.00 | 0.00 | 48 | 1018.3 |
| 20260831233617 | 18 | 263 | 4.8 | 17.7 | 0.00 | 0.00 | 0.00 | 50 | 1018.3 |
| 20260831233118 | 18 | 263 | 4.8 | 17.7 | 0.00 | 0.00 | 0.00 | 50 | 1018.3 |
| 20260831232603 | 18 | 263 | 4.8 | 17.7 | 0.00 | 0.00 | 0.00 | 51 | 1018.5 |
| 20260831232047 | 18 | 263 | 4.8 | 17.7 | 0.00 | 0.00 | 0.00 | 51 | 1018.5 |
| 20260831231547 | 17 | 263 | 4.8 | 16.1 | 0.00 | 0.00 | 0.00 | 52 | 1018.5 |
| 20260831231039 | 17 | 263 | 3.2 | 16.1 | 0.00 | 0.00 | 0.00 | 52 | 1018.5 |
| 20260831230525 | 17 | 263 | 1.6 | 11.3 | 0.00 | 0.00 | 0.00 | 52 | 1018.5 |
| 20260831230031 | 17 | 263 | 3.2 | 11.3 | 0.00 | 0.00 | 0.00 | 52 | 1018.5 |
| 20260831225514 | 17 | 263 | 3.2 | 16.1 | 0.00 | 0.00 | 0.00 | 53 | 1018.2 |
| 20260831225022 | 17 | 263 | 4.8 | 16.1 | 0.00 | 0.00 | 0.00 | 53 | 1018.2 |
| 20260831224523 | 17 | 263 | 4.8 | 17.7 | 0.00 | 0.00 | 0.00 | 53 | 1018.2 |
| 20260831223355 | 17 | 263 | 6.4 | 19.3 | 0.00 | 0.00 | 0.00 | 54 | 1018.5 |
| 20260831222857 | 17 | 263 | 6.4 | 19.3 | 0.00 | 0.00 | 0.00 | 54 | 1018.5 |
| 20260831222358 | 17 | 263 | 4.8 | 19.3 | 0.00 | 0.00 | 0.00 | 54 | 1018.5 |
| 20260831221226 | 17 | 263 | 4.8 | 17.7 | 0.00 | 0.00 | 0.00 | 55 | 1018.7 |
| 20260831220726 | 16 | 263 | 3.2 | 14.5 | 0.00 | 0.00 | 0.00 | 55 | 1018.7 |
| 20260831220215 | 16 | 263 | 3.2 | 8.0 | 0.00 | 0.00 | 0.00 | 56 | 1018.7 |
| 20260831213811 | 15 | 263 | 4.8 | 12.9 | 0.00 | 0.00 | 0.00 | 59 | 1018.5 |
| 20260831213307 | 15 | 263 | 3.2 | 12.9 | 0.00 | 0.00 | 0.00 | 61 | 1018.5 |
| 20260831211518 | 14 | 263 | 4.8 | 12.9 | 0.00 | 0.00 | 0.00 | 62 | 1018.5 |
| 20260831210959 | 14 | 263 | 4.8 | 12.9 | 0.00 | 0.00 | 0.00 | 62 | 1018.6 |
| 20260831210508 | 14 | 263 | 3.2 | 12.9 | 0.00 | 0.00 | 0.00 | 62 | 1018.6 |
| 20260831210009 | 14 | 263 | 3.2 | 14.5 | 0.00 | 0.00 | 0.00 | 62 | 1018.6 |
| 20260831205457 | 14 | 263 | 4.8 | 14.5 | 0.00 | 0.00 | 0.00 | 62 | 1018.6 |
| 20260831204335 | 14 | 263 | 3.2 | 14.5 | 0.00 | 0.00 | 0.00 | 63 | 1018.7 |
| 20260831203839 | 13 | 263 | 3.2 | 11.3 | 0.00 | 0.00 | 0.00 | 63 | 1018.7 |
| 20260831203329 | 13 | 263 | 3.2 | 11.3 | 0.00 | 0.00 | 0.00 | 63 | 1018.7 |
| 20260831202823 | 13 | 263 | 3.2 | 11.3 | 0.00 | 0.00 | 0.00 | 63 | 1018.6 |
| 20260831202332 | 13 | 263 | 3.2 | 9.7 | 0.00 | 0.00 | 0.00 | 63 | 1018.6 |
| 20260831201153 | 13 | 263 | 3.2 | 12.9 | 0.00 | 0.00 | 0.00 | 62 | 1018.8 |
| 20260831200645 | 13 | 263 | 3.2 | 12.9 | 0.00 | 0.00 | 0.00 | 62 | 1018.8 |
| 20260831200129 | 13 | 263 | 3.2 | 12.9 | 0.00 | 0.00 | 0.00 | 62 | 1018.8 |
| 20260831195612 | 14 | 263 | 3.2 | 11.3 | 0.00 | 0.00 | 0.00 | 62 | 1018.9 |
| 20260831195107 | 14 | 263 | 3.2 | 9.7 | 0.00 | 0.00 | 0.00 | 62 | 1018.9 |
| 20260831194549 | 14 | 263 | 3.2 | 9.7 | 0.00 | 0.00 | 0.00 | 62 | 1018.9 |
| 20260831193419 | 14 | 263 | 3.2 | 14.5 | 0.00 | 0.00 | 0.00 | 61 | 1019.0 |
| 20260831192913 | 14 | 263 | 3.2 | 14.5 | 0.00 | 0.00 | 0.00 | 61 | 1019.0 |
| 20260831192420 | 14 | 263 | 3.2 | 14.5 | 0.00 | 0.00 | 0.00 | 62 | 1019.0 |
| 20260831191920 | 13 | 263 | 3.2 | 12.9 | 0.00 | 0.00 | 0.00 | 62 | 1019.0 |
| 20260831191407 | 13 | 263 | 3.2 | 9.7 | 0.00 | 0.00 | 0.00 | 62 | 1019.0 |
| 20260831190908 | 13 | 263 | 1.6 | 9.7 | 0.00 | 0.00 | 0.00 | 62 | 1019.1 |
| 20260831190412 | 13 | 263 | 1.6 | 9.7 | 0.00 | 0.00 | 0.00 | 61 | 1019.1 |
| 20260831185900 | 13 | 263 | 1.6 | 9.7 | 0.00 | 0.00 | 0.00 | 61 | 1019.2 |
| 20260831185352 | 14 | 263 | 3.2 | 9.7 | 0.00 | 0.00 | 0.00 | 61 | 1019.2 |
| 20260831184836 | 14 | 263 | 3.2 | 9.7 | 0.00 | 0.00 | 0.00 | 61 | 1019.2 |
| 20260831184342 | 14 | 263 | 3.2 | 9.7 | 0.00 | 0.00 | 0.00 | 60 | 1019.4 |
| 20260831183830 | 14 | 263 | 3.2 | 9.7 | 0.00 | 0.00 | 0.00 | 60 | 1019.4 |
| 20260831182719 | 14 | 263 | 3.2 | 11.3 | 0.00 | 0.00 | 0.00 | 60 | 1019.6 |
| 20260831182221 | 14 | 263 | 4.8 | 14.5 | 0.00 | 0.00 | 0.00 | 60 | 1019.6 |
| 20260831181703 | 14 | 263 | 3.2 | 14.5 | 0.00 | 0.00 | 0.00 | 60 | 1019.6 |
| 20260831181205 | 14 | 263 | 4.8 | 14.5 | 0.00 | 0.00 | 0.00 | 59 | 1019.7 |
| 20260831180649 | 14 | 263 | 4.8 | 14.5 | 0.00 | 0.00 | 0.00 | 59 | 1019.7 |
| 20260831180133 | 14 | 263 | 4.8 | 11.3 | 0.00 | 0.00 | 0.00 | 59 | 1019.7 |
| 20260831175633 | 14 | 263 | 3.2 | 11.3 | 0.00 | 0.00 | 0.00 | 59 | 1020.0 |
| 20260831175125 | 14 | 263 | 3.2 | 14.5 | 0.00 | 0.00 | 0.00 | 59 | 1020.0 |
| 20260831174604 | 14 | 263 | 3.2 | 14.5 | 0.00 | 0.00 | 0.00 | 59 | 1020.0 |
| 20260831174045 | 14 | 263 | 4.8 | 14.5 | 0.00 | 0.00 | 0.00 | 59 | 1020.0 |
| 20260831173526 | 14 | 263 | 4.8 | 14.5 | 0.00 | 0.00 | 0.00 | 59 | 1020.0 |
| 20260831173005 | 14 | 263 | 3.2 | 11.3 | 0.00 | 0.00 | 0.00 | 59 | 1020.0 |
| 20260831172504 | 14 | 263 | 3.2 | 11.3 | 0.00 | 0.00 | 0.00 | 59 | 1020.1 |
| 20260831171950 | 14 | 263 | 3.2 | 12.9 | 0.00 | 0.00 | 0.00 | 59 | 1020.1 |
| 20260831171458 | 14 | 263 | 3.2 | 12.9 | 0.00 | 0.00 | 0.00 | 59 | 1020.1 |
| 20260831170325 | 14 | 263 | 3.2 | 12.9 | 0.00 | 0.00 | 0.00 | 60 | 1020.4 |
| 20260831165816 | 14 | 263 | 1.6 | 8.0 | 0.00 | 0.00 | 0.00 | 60 | 1020.6 |
| 20260831165323 | 14 | 263 | 1.6 | 6.4 | 0.00 | 0.00 | 0.00 | 59 | 1020.6 |
| 20260831164829 | 14 | 263 | 1.6 | 6.4 | 0.00 | 0.00 | 0.00 | 59 | 1020.6 |
| 20260831164326 | 14 | 263 | 1.6 | 6.4 | 0.00 | 0.00 | 0.00 | 59 | 1020.8 |
| 20260831163834 | 14 | 263 | 1.6 | 6.4 | 0.00 | 0.00 | 0.00 | 58 | 1020.8 |
| 20260831163326 | 15 | 263 | 1.6 | 4.8 | 0.00 | 0.00 | 0.00 | 58 | 1020.8 |
| 20260831162833 | 15 | 263 | 1.6 | 8.0 | 0.00 | 0.00 | 0.00 | 58 | 1021.0 |
| 20260831162334 | 15 | 263 | 1.6 | 8.0 | 0.00 | 0.00 | 0.00 | 58 | 1021.0 |
| 20260831161825 | 15 | 263 | 3.2 | 17.7 | 0.00 | 0.00 | 0.00 | 57 | 1021.0 |
| 20260831160646 | 15 | 263 | 3.2 | 17.7 | 0.00 | 0.00 | 0.00 | 57 | 1021.2 |
| 20260831160141 | 15 | 263 | 3.2 | 12.9 | 0.00 | 0.00 | 0.00 | 58 | 1021.2 |
| 20260831155622 | 15 | 263 | 3.2 | 9.7 | 0.00 | 0.00 | 0.00 | 57 | 1021.5 |
| 20260831155123 | 15 | 263 | 1.6 | 9.7 | 0.00 | 0.00 | 0.00 | 57 | 1021.5 |
| 20260831154607 | 15 | 263 | 1.6 | 9.7 | 0.00 | 0.00 | 0.00 | 57 | 1021.5 |
| 20260831154057 | 15 | 263 | 1.6 | 9.7 | 0.00 | 0.00 | 0.00 | 57 | 1021.8 |
| 20260831153558 | 15 | 263 | 1.6 | 8.0 | 0.00 | 0.00 | 0.00 | 56 | 1021.8 |
| 20260831153058 | 15 | 263 | 1.6 | 8.0 | 0.00 | 0.00 | 0.00 | 56 | 1021.8 |
| 20260831152555 | 15 | 263 | 3.2 | 12.9 | 0.00 | 0.00 | 0.00 | 56 | 1022.0 |
| 20260831152104 | 15 | 263 | 3.2 | 12.9 | 0.00 | 0.00 | 0.00 | 55 | 1022.0 |
| 20260831150922 | 15 | 263 | 3.2 | 12.9 | 0.00 | 0.00 | 0.00 | 55 | 1022.1 |
| 20260831150410 | 15 | 263 | 3.2 | 9.7 | 0.00 | 0.00 | 0.00 | 56 | 1022.1 |
| 20260831145904 | 15 | 263 | 3.2 | 12.9 | 0.00 | 0.00 | 0.00 | 56 | 1022.2 |
| 20260831145348 | 15 | 263 | 3.2 | 12.9 | 0.00 | 0.00 | 0.00 | 56 | 1022.2 |
| 20260831144217 | 15 | 263 | 3.2 | 12.9 | 0.00 | 0.00 | 0.00 | 56 | 1022.3 |
| 20260831143724 | 15 | 263 | 3.2 | 9.7 | 0.00 | 0.00 | 0.00 | 56 | 1022.3 |
| 20260831142547 | 14 | 263 | 3.2 | 12.9 | 0.00 | 0.00 | 0.00 | 57 | 1022.6 |
| 20260831142028 | 14 | 263 | 3.2 | 12.9 | 0.00 | 0.00 | 0.00 | 57 | 1022.6 |
| 20260831140928 | 14 | 263 | 1.6 | 9.7 | 0.00 | 0.00 | 0.00 | 59 | 1022.8 |
| 20260831140422 | 13 | 263 | 1.6 | 8.0 | 0.00 | 0.00 | 0.00 | 60 | 1022.8 |
| 20260831135924 | 13 | 263 | 1.6 | 8.0 | 0.00 | 0.00 | 0.00 | 60 | 1022.8 |
| 20260831135419 | 13 | 263 | 1.6 | 8.0 | 0.00 | 0.00 | 0.00 | 61 | 1023.2 |
| 20260831134919 | 13 | 263 | 1.6 | 8.0 | 0.00 | 0.00 | 0.00 | 61 | 1023.2 |
| 20260831134401 | 13 | 263 | 0.0 | 6.4 | 0.00 | 0.00 | 0.00 | 62 | 1023.4 |
| 20260831133853 | 13 | 263 | 0.0 | 6.4 | 0.00 | 0.00 | 0.00 | 62 | 1023.4 |
| 20260831132726 | 13 | 263 | 0.0 | 4.8 | 0.00 | 0.00 | 0.00 | 62 | 1023.8 |
| 20260831132229 | 13 | 263 | 1.6 | 4.8 | 0.00 | 0.00 | 0.00 | 63 | 1023.8 |
| 20260831131055 | 13 | 263 | 0.0 | 3.2 | 0.00 | 0.00 | 0.00 | 62 | 1023.8 |
| 20260831130548 | 13 | 263 | 0.0 | 3.2 | 0.00 | 0.00 | 0.00 | 62 | 1023.8 |
| 20260831130035 | 13 | 263 | 0.0 | 9.7 | 0.00 | 0.00 | 0.00 | 63 | 1023.8 |
| 20260831124902 | 13 | 263 | 1.6 | 9.7 | 0.00 | 0.00 | 0.00 | 68 | 1023.8 |
| 20260831124342 | 13 | 263 | 1.6 | 6.4 | 0.00 | 0.00 | 0.00 | 68 | 1023.8 |
| 20260831123834 | 13 | 263 | 1.6 | 6.4 | 0.00 | 0.00 | 0.00 | 68 | 1023.8 |
| 20260831123332 | 13 | 263 | 1.6 | 6.4 | 0.00 | 0.00 | 0.00 | 68 | 1023.8 |
| 20260831122819 | 13 | 263 | 1.6 | 6.4 | 0.00 | 0.00 | 0.00 | 68 | 1023.9 |
| 20260831122312 | 13 | 263 | 1.6 | 6.4 | 0.00 | 0.00 | 0.00 | 69 | 1023.9 |
| 20260831121817 | 12 | 263 | 0.0 | 6.4 | 0.00 | 0.00 | 0.00 | 70 | 1023.9 |
| 20260831121308 | 12 | 263 | 0.0 | 4.8 | 0.00 | 0.00 | 0.00 | 71 | 1023.9 |
| 20260831120813 | 12 | 263 | 0.0 | 4.8 | 0.00 | 0.00 | 0.00 | 71 | 1023.9 |
| 20260831120309 | 12 | 263 | 0.0 | 1.6 | 0.00 | 0.00 | 0.00 | 71 | 1023.9 |
| 20260831115115 | 13 | 263 | 0.0 | 0.0 | 0.00 | 0.00 | 0.00 | 70 | 1024.0 |
| 20260831114601 | 13 | 263 | 0.0 | 1.6 | 0.00 | 0.00 | 0.00 | 70 | 1024.0 |
| 20260831114057 | 13 | 263 | 0.0 | 0.0 | 0.00 | 0.00 | 0.00 | 70 | 1024.1 |
| 20260831113544 | 13 | 263 | 0.0 | 3.2 | 0.00 | 0.00 | 0.00 | 71 | 1024.1 |
| 20260831112409 | 13 | 263 | 0.0 | 1.6 | 0.00 | 0.00 | 0.00 | 72 | 1024.3 |
| 20260831111859 | 13 | 263 | 1.6 | 1.6 | 0.00 | 0.00 | 0.00 | 72 | 1024.3 |
| 20260831111348 | 13 | 263 | 1.6 | 1.6 | 0.00 | 0.00 | 0.00 | 72 | 1024.3 |
| 20260831110200 | 13 | 263 | 0.0 | 3.2 | 0.00 | 0.00 | 0.00 | 73 | 1024.3 |
| 20260831105700 | 13 | 263 | 0.0 | 3.2 | 0.00 | 0.00 | 0.00 | 73 | 1024.4 |
| 20260831105202 | 13 | 263 | 0.0 | 3.2 | 0.00 | 0.00 | 0.00 | 73 | 1024.4 |
| 20260831104651 | 13 | 263 | 0.0 | 3.2 | 0.00 | 0.00 | 0.00 | 73 | 1024.4 |
| 20260831104149 | 13 | 263 | 0.0 | 0.0 | 0.00 | 0.00 | 0.00 | 73 | 1024.4 |
| 20260831103650 | 13 | 263 | 0.0 | 1.6 | 0.00 | 0.00 | 0.00 | 73 | 1024.4 |
| 20260831103140 | 13 | 263 | 0.0 | 3.2 | 0.00 | 0.00 | 0.00 | 73 | 1024.4 |
| 20260831102640 | 13 | 263 | 0.0 | 3.2 | 0.00 | 0.00 | 0.00 | 73 | 1024.8 |
| 20260831102129 | 13 | 263 | 0.0 | 0.0 | 0.00 | 0.00 | 0.00 | 73 | 1024.8 |
| 20260831100957 | 14 | 263 | 0.0 | 0.0 | 0.00 | 0.00 | 0.00 | 73 | 1024.9 |
| 20260831095226 | 15 | 263 | 0.0 | 0.0 | 0.00 | 0.00 | 0.00 | 72 | 1024.9 |
| 20260831094053 | 15 | 263 | 0.0 | 0.0 | 0.00 | 0.00 | 0.00 | 70 | 1024.9 |
| 20260831093543 | 15 | 263 | 0.0 | 0.0 | 0.00 | 0.00 | 0.00 | 70 | 1024.9 |
| 20260831093038 | 16 | 263 | 0.0 | 0.0 | 0.00 | 0.00 | 0.00 | 70 | 1024.9 |
| 20260831092527 | 16 | 263 | 0.0 | 0.0 | 0.00 | 0.00 | 0.00 | 69 | 1024.9 |
| 20260831092026 | 16 | 263 | 0.0 | 0.0 | 0.00 | 0.00 | 0.00 | 68 | 1024.9 |
| 20260831091517 | 16 | 263 | 0.0 | 0.0 | 0.00 | 0.00 | 0.00 | 67 | 1024.9 |
| 20260831091002 | 16 | 263 | 0.0 | 0.0 | 0.00 | 0.00 | 0.00 | 67 | 1024.9 |
| 20260831090445 | 16 | 263 | 0.0 | 0.0 | 0.00 | 0.00 | 0.00 | 67 | 1024.9 |
| 20260831085946 | 17 | 263 | 0.0 | 0.0 | 0.00 | 0.00 | 0.00 | 66 | 1024.9 |
| 20260831085435 | 17 | 263 | 0.0 | 0.0 | 0.00 | 0.00 | 0.00 | 65 | 1025.0 |
| 20260831084930 | 17 | 263 | 0.0 | 0.0 | 0.00 | 0.00 | 0.00 | 64 | 1025.0 |
| 20260831083816 | 18 | 263 | 0.0 | 0.0 | 0.00 | 0.00 | 0.00 | 62 | 1025.1 |
| 20260831082631 | 18 | 263 | 0.0 | 0.0 | 0.00 | 0.00 | 0.00 | 61 | 1025.2 |
| 20260831082113 | 18 | 263 | 0.0 | 0.0 | 0.00 | 0.00 | 0.00 | 61 | 1025.2 |
| 20260831081555 | 18 | 263 | 0.0 | 4.8 | 0.00 | 0.00 | 0.00 | 61 | 1025.2 |
| 20260831081042 | 18 | 263 | 1.6 | 6.4 | 0.00 | 0.00 | 0.00 | 60 | 1025.1 |
| 20260831080535 | 18 | 263 | 1.6 | 6.4 | 0.00 | 0.00 | 0.00 | 60 | 1025.1 |
| 20260831080026 | 19 | 263 | 3.2 | 6.4 | 0.00 | 0.00 | 0.00 | 59 | 1025.1 |
| 20260831075529 | 19 | 263 | 1.6 | 6.4 | 0.00 | 0.00 | 0.00 | 59 | 1024.9 |
| 20260831075037 | 19 | 263 | 1.6 | 4.8 | 0.00 | 0.00 | 0.00 | 59 | 1024.9 |
| 20260831074523 | 19 | 263 | 1.6 | 4.8 | 0.00 | 0.00 | 0.00 | 59 | 1024.9 |
| 20260831074011 | 19 | 263 | 3.2 | 4.8 | 0.00 | 0.00 | 0.00 | 58 | 1025.0 |
| 20260831073509 | 19 | 263 | 3.2 | 6.4 | 0.00 | 0.00 | 0.00 | 58 | 1025.0 |
| 20260831072352 | 20 | 263 | 1.6 | 6.4 | 0.00 | 0.00 | 0.00 | 58 | 1025.0 |
| 20260831071850 | 20 | 263 | 1.6 | 0.0 | 0.00 | 0.00 | 0.00 | 57 | 1025.0 |
| 20260831071358 | 20 | 263 | 3.2 | 6.4 | 0.00 | 0.00 | 0.00 | 58 | 1025.1 |
| 20260831070904 | 20 | 263 | 1.6 | 6.4 | 0.00 | 0.00 | 0.00 | 57 | 1025.1 |
| 20260831070354 | 19 | 263 | 1.6 | 6.4 | 0.00 | 0.00 | 0.00 | 58 | 1025.1 |
| 20260831065241 | 19 | 263 | 3.2 | 9.7 | 0.00 | 0.00 | 0.00 | 59 | 1025.3 |
| 20260831064735 | 19 | 263 | 3.2 | 9.7 | 0.00 | 0.00 | 0.00 | 59 | 1025.3 |
| 20260831064234 | 19 | 263 | 3.2 | 11.3 | 0.00 | 0.00 | 0.00 | 58 | 1025.4 |
| 20260831063112 | 19 | 263 | 3.2 | 11.3 | 0.00 | 0.00 | 0.00 | 59 | 1025.4 |
| 20260831062621 | 19 | 263 | 4.8 | 12.9 | 0.00 | 0.00 | 0.00 | 59 | 1025.5 |
| 20260831062128 | 20 | 263 | 6.4 | 12.9 | 0.00 | 0.00 | 0.00 | 58 | 1025.5 |
| 20260831061628 | 20 | 263 | 4.8 | 12.9 | 0.00 | 0.00 | 0.00 | 58 | 1025.5 |
| 20260831061108 | 20 | 263 | 4.8 | 12.9 | 0.00 | 0.00 | 0.00 | 57 | 1025.7 |
| 20260831060555 | 20 | 263 | 4.8 | 12.9 | 0.00 | 0.00 | 0.00 | 57 | 1025.7 |
| 20260831060044 | 20 | 263 | 4.8 | 12.9 | 0.00 | 0.00 | 0.00 | 56 | 1025.7 |
| 20260831055553 | 20 | 263 | 4.8 | 12.9 | 0.00 | 0.00 | 0.00 | 56 | 1025.6 |
| 20260831055048 | 20 | 263 | 4.8 | 9.7 | 0.00 | 0.00 | 0.00 | 55 | 1025.6 |
| 20260831053859 | 21 | 263 | 6.4 | 16.1 | 0.00 | 0.00 | 0.00 | 54 | 1025.6 |
| 20260831053400 | 21 | 263 | 4.8 | 16.1 | 0.00 | 0.00 | 0.00 | 55 | 1025.6 |
| 20260831052842 | 21 | 263 | 6.4 | 14.5 | 0.00 | 0.00 | 0.00 | 54 | 1025.8 |
| 20260831052351 | 21 | 263 | 4.8 | 14.5 | 0.00 | 0.00 | 0.00 | 53 | 1025.8 |
| 20260831051831 | 21 | 263 | 4.8 | 14.5 | 0.00 | 0.00 | 0.00 | 55 | 1025.8 |
| 20260831051340 | 21 | 263 | 6.4 | 14.5 | 0.00 | 0.00 | 0.00 | 53 | 1025.9 |
| 20260831050154 | 21 | 263 | 3.2 | 12.9 | 0.00 | 0.00 | 0.00 | 52 | 1025.9 |
| 20260831045651 | 21 | 263 | 3.2 | 12.9 | 0.00 | 0.00 | 0.00 | 50 | 1026.1 |
| 20260831044509 | 20 | 263 | 4.8 | 12.9 | 0.00 | 0.00 | 0.00 | 54 | 1026.1 |
| 20260831044011 | 20 | 263 | 4.8 | 16.1 | 0.00 | 0.00 | 0.00 | 53 | 1026.4 |
| 20260831043505 | 20 | 263 | 4.8 | 16.1 | 0.00 | 0.00 | 0.00 | 54 | 1026.4 |
| 20260831042959 | 20 | 263 | 8.0 | 16.1 | 0.00 | 0.00 | 0.00 | 54 | 1026.4 |
| 20260831041844 | 21 | 263 | 4.8 | 14.5 | 0.00 | 0.00 | 0.00 | 52 | 1026.8 |
| 20260831041329 | 21 | 263 | 4.8 | 12.9 | 0.00 | 0.00 | 0.00 | 52 | 1027.0 |
| 20260831040818 | 21 | 263 | 4.8 | 12.9 | 0.00 | 0.00 | 0.00 | 53 | 1027.0 |
| 20260831040315 | 20 | 263 | 4.8 | 14.5 | 0.00 | 0.00 | 0.00 | 53 | 1027.0 |
| 20260831035757 | 20 | 263 | 4.8 | 14.5 | 0.00 | 0.00 | 0.00 | 52 | 1027.4 |
| 20260831035250 | 20 | 263 | 4.8 | 14.5 | 0.00 | 0.00 | 0.00 | 52 | 1027.4 |
| 20260831034739 | 21 | 263 | 4.8 | 14.5 | 0.00 | 0.00 | 0.00 | 51 | 1027.4 |
| 20260831034235 | 21 | 263 | 4.8 | 11.3 | 0.00 | 0.00 | 0.00 | 50 | 1027.6 |
| 20260831033105 | 21 | 263 | 1.6 | 8.0 | 0.00 | 0.00 | 0.00 | 49 | 1027.6 |
| 20260831032555 | 20 | 263 | 3.2 | 9.7 | 0.00 | 0.00 | 0.00 | 50 | 1028.0 |
| 20260831032046 | 20 | 263 | 4.8 | 9.7 | 0.00 | 0.00 | 0.00 | 51 | 1028.0 |
| 20260831031536 | 20 | 263 | 3.2 | 9.7 | 0.00 | 0.00 | 0.00 | 52 | 1028.0 |
| 20260831031033 | 20 | 263 | 3.2 | 9.7 | 0.00 | 0.00 | 0.00 | 51 | 1028.4 |
| 20260831030520 | 20 | 263 | 4.8 | 12.9 | 0.00 | 0.00 | 0.00 | 52 | 1028.4 |
| 20260831030005 | 20 | 263 | 3.2 | 12.9 | 0.00 | 0.00 | 0.00 | 52 | 1028.4 |
| 20260831025503 | 20 | 263 | 4.8 | 12.9 | 0.00 | 0.00 | 0.00 | 51 | 1028.6 |
| 20260831024950 | 20 | 263 | 3.2 | 12.9 | 0.00 | 0.00 | 0.00 | 50 | 1028.6 |
| 20260831024447 | 21 | 263 | 1.6 | 8.0 | 0.00 | 0.00 | 0.00 | 50 | 1028.6 |
| 20260831023939 | 21 | 263 | 1.6 | 8.0 | 0.00 | 0.00 | 0.00 | 49 | 1029.0 |
| 20260831023444 | 21 | 263 | 1.6 | 8.0 | 0.00 | 0.00 | 0.00 | 51 | 1029.0 |
| 20260831022935 | 20 | 263 | 1.6 | 8.0 | 0.00 | 0.00 | 0.00 | 51 | 1029.0 |
| 20260831022416 | 20 | 263 | 1.6 | 8.0 | 0.00 | 0.00 | 0.00 | 53 | 1029.2 |
| 20260831021240 | 19 | 263 | 1.6 | 9.7 | 0.00 | 0.00 | 0.00 | 57 | 1029.5 |
| 20260831015522 | 18 | 263 | 1.6 | 6.4 | 0.00 | 0.00 | 0.00 | 59 | 1029.6 |
| 20260831015016 | 18 | 263 | 3.2 | 9.7 | 0.00 | 0.00 | 0.00 | 59 | 1029.6 |
| 20260831014525 | 18 | 263 | 1.6 | 9.7 | 0.00 | 0.00 | 0.00 | 59 | 1029.6 |
| 20260831014031 | 18 | 263 | 3.2 | 9.7 | 0.00 | 0.00 | 0.00 | 60 | 1030.0 |